Location: Unspecified
(41.1850°N, 73.2650°W)
Time: 20:18:37
(UTC+00:00)

Landsat 7 - Pass Details

Date: 14 December 2025
Orbit: 680 x 682 km, 97.9° (Epoch: 12 January)

Event Time Altitude Azimuth Distance (km) Brightness Sun altitude
Rises 22:46:25 0° 176° (S) 3,028 7.3 -14.8°
Reaches altitude 10° 22:48:40 10° 181° (S) 2,117 6.5 -15.2°
Maximum altitude 22:53:14 57° 260° (W) 803 4.4 -16.0°
Drops below altitude 10° 22:57:50 10° 339° (NNW) 2,132 6.4 -16.8°
Sets 23:00:07 0° 344° (NNW) 3,052 7.1 -17.2°
